This demonstration page uses our WeatherBlox Daily Observations layout. Learn more.

Left ArrowRight Arrow

39.92423, -83.80882

Hourly Observations for June 8, 2015

Temp ( °F °C ) Dew Point ( °F °C ) Humidity (%) Winds ( mph kmh ) Pressure ( in mb ) Visibility ( mi km ) Precip ( " mm )
12:56 am 00:56 Mostly Cloudy 71 21.6 65 18.3 82 82 WSW 5 7 29.88 1012 10 16.0934 0 0.0254
1:56 am 01:56 Mostly Clear 72 22.2 63 17.2 73 73 S 7 11 29.84 1011 10 16.0934 0 0
2:56 am 02:56 Partly Cloudy 73 22.7 63 17.2 71 71 S 8 13 29.81 1009 10 16.0934 0 0
3:56 am 03:56 Mostly Cloudy 76 24.4 66 18.8 71 71 SSW 14 22 29.79 1009 9 14.48406 0 0
4:56 am 04:56 Clear 75 23.8 66 18.8 74 74 SSW 12 19 29.78 1009 9 14.48406 0 0
5:56 am 05:56 Clear 75 23.8 66 18.8 74 74 SW 13 20 29.79 1009 9 14.48406 0 0
6:56 am 06:56 Sunny 74 23.3 65 18.3 74 74 SW 13 20 29.79 1009 8 12.87472 0 0
7:56 am 07:56 Sunny 73 22.7 63 17.2 71 71 SSW 18 30 29.79 1009 9 14.48406 0 0
8:56 am 08:56 Partly Cloudy 73 22.7 63 17.2 71 71 SSW 16 26 29.81 1010 9 14.48406 0 0
9:56 am 09:56 Sunny 74 23.3 64 17.7 71 71 SSW 13 20 29.8 1009 9 14.48406 0 0
10:56 am 10:56 Partly Cloudy with Light Rain 73 22.7 66 18.8 79 79 SW 8 13 29.8 1009 7 11.26538 0 0.0254
11:56 am 11:56 Mostly Cloudy 75 23.8 65 18.3 71 71 SW 13 20 29.82 1010 9 14.48406 0 0.0254
12:56 pm 12:56 Partly Cloudy 77 25 65 18.3 66 66 SW 16 26 29.8 1009 9 14.48406 0 0
1:56 pm 13:56 Mostly Cloudy 78 25.5 65 18.3 64 64 WSW 16 26 29.78 1009 9 14.48406 0 0
2:56 pm 14:56 Mostly Cloudy 79 26.1 65 18.3 62 62 SSW 14 22 29.77 1008 9 14.48406 0 0
3:56 pm 15:56 Partly Cloudy 79 26.1 65 18.3 62 62 SW 16 26 29.75 1008 10 16.0934 0 0
4:45 pm 16:45 Mostly Cloudy with Nearby Thunderstorms 72 22 66 19 83 83 WNW 16 26 29.77 1008 6 9.65604 0 0
4:56 pm 16:56 Mostly Cloudy with Nearby Thunderstorms 69 20.5 67 19.4 93 93 WNW 16 26 29.77 1008 2 3.21868 0.04 1.016
5:03 pm 17:03 Mostly Cloudy with Mist and Fog 68 20 66 19 94 94 WNW 14 22 29.77 1008 1.75 2.816345 0.01 0.254
5:07 pm 17:07 Cloudy with Mist and Fog 68 20 66 19 94 94 W 13 20 29.77 1008 3 4.82802 0.01 0.254
5:19 pm 17:19 Mostly Cloudy with Light Rain 68 20 66 19 94 94 W 8 13 29.77 1008 5 8.0467 0.01 0.254
5:27 pm 17:27 Cloudy with Nearby Thunderstorms 68 20 66 19 94 94 W 8 13 29.77 1008 3 4.82802 0.03 0.762
5:30 pm 17:30 Cloudy with Mist and Fog 68 20 66 19 94 94 WNW 7 11 29.74 1007 2.5 4.02335 0.03 0.762
5:36 pm 17:36 Mostly Cloudy with Light Rain 68 20 68 20 100 100 NW 8 13 29.74 1007 4 6.43736 0.04 1.016
5:43 pm 17:43 Mostly Cloudy 70 21 68 20 94 94 WNW 7 11 29.74 1007 8 12.87472 0.04 1.016
5:56 pm 17:56 Mostly Cloudy 69 20.5 68 20 97 97 SW 9 15 29.75 1008 8 12.87472 0.04 1.016
6:17 pm 18:17 Mostly Cloudy 70 21 70 21 100 100 SW 13 20 29.74 1007 7 11.26538 0 0
6:56 pm 18:56 Partly Cloudy 71 21.6 69 20.5 93 93 SW 10 17 29.73 1007 8 12.87472 0 0
7:56 pm 19:56 Partly Cloudy 70 21.1 68 20 93 93 SW 9 15 29.73 1007 8 12.87472 0 0
8:13 pm 20:13 Mostly Cloudy 70 21 68 20 94 94 SW 9 15 29.71 1006 8 12.87472 0 0
8:31 pm 20:31 Mostly Cloudy 70 21 68 20 94 94 WSW 8 13 29.74 1007 8 12.87472 0 0
8:56 pm 20:56 Mostly Cloudy 70 21.1 69 20.5 96 96 SSW 8 13 29.75 1007 7 11.26538 0 0
9:56 pm 21:56 Mostly Cloudy 70 21.1 69 20.5 96 96 SW 10 17 29.77 1008 9 14.48406 0 0
10:04 pm 22:04 Partly Cloudy 70 21 68 20 94 94 SW 10 17 29.77 1008 9 14.48406 0 0
10:56 pm 22:56 Mostly Cloudy with Heavy Rain 63 17.2 60 15.5 90 90 NNW 15 24 29.84 1010 1 1.60934 0.16 4.064
11:00 pm 23:00 Cloudy with Heavy Rain 63 17 61 16 94 94 NNW 14 22 29.83 1010 0.75 1.207005 0.07 1.778
11:05 pm 23:05 Cloudy with Light Rain 61 16 61 16 100 100 NW 10 17 29.83 1010 1 1.60934 0.08 2.032
11:08 pm 23:08 Cloudy with Rain 61 16 61 16 100 100 NW 9 15 29.83 1010 1.5 2.41401 0.09 2.286
11:12 pm 23:12 Mostly Cloudy with Light Rain 61 16 59 15 94 94 WNW 9 15 29.83 1010 3 4.82802 0.09 2.286
11:56 pm 23:56 Mostly Cloudy with Light Rain 60 15.5 60 15.5 100 100 WSW 7 11 29.83 1010 5 8.0467 0.15 3.81

Powered by AerisWeather